Regional Weather Roundup
Issued by NWS Wakefield, VA

Home | Current Version | Previous Version | Graphics & Text | Print | Product List | Glossary On
Versions: 1 2 3 4 5 6 7 8 9 10 11 12 13 14 15 16 17 18 19 20 21 22 23 24 25 26 27 28 29 30 31 32 33 34 35 36 37 38 39 40 41 42 43 44 45 46 47 48 49 50
000
ASUS41 KAKQ 211510
RWRAKQ

REGIONAL WEATHER ROUNDUP
NATIONAL WEATHER SERVICE WAKEFIELD VA
1100 AM EDT SUN SEP 21 2014

Note: "fair" indicates few or no clouds below 12,000 feet with no
significant weather and/or obstructions to visibility. * = Denotes
station may not report precipitation (e.g., rain,snow,etc.),
thunder or fog.

VAZ042-051-052>054-056-211600-
NORTHERN VIRGINIA

CITY           SKY/WX    TMP DP  RH WIND       PRES   REMARKS
WASH NATIONAL  PTSUNNY   74  62  66 CALM      29.86F
DULLES         MOSUNNY   71  61  70 S6        29.86F
FORT BELVOIR   MOSUNNY   72  63  73 CALM      29.86F
QUANTICO       MOSUNNY   69  63  81 VRB5      29.86F
FREDERICKSBRG* SUNNY     73  64  74 CALM      29.85F
STAFFORD*      SUNNY     71  69  92 CALM      29.90F
WARRENTON      MOSUNNY   75  66  73 SW3       29.86F
CULPEPER*      SUNNY     73  61  64 CALM      29.87F
MANASSAS*      SUNNY     72  64  78 CALM      29.87F
LEESBURG*      SUNNY     72  64  78 SE3       29.87F
WINCHESTER     SUNNY     77  57  50 S7        29.83F
FRONT ROYAL*   SUNNY     75  59  57 S6        29.84F
LURAY*         SUNNY     75  61  60 S3        29.86F
$$

VAZ048-049-060>072-079>083-211600-
CENTRAL AND SOUTH CENTRAL VIRGINIA...AND NORTH CENTRAL NORTH CAROLINA

CITY           SKY/WX    TMP DP  RH WIND       PRES   REMARKS
RICHMOND       PTSUNNY   75  62  64 NW10      29.86F
CHESTERFIELD*  PTSUNNY  N/A N/A N/A NW5       29.87F
PETERSBURG*    PTSUNNY   72  61  69 NW7       29.87S
HANOVER        MOSUNNY   72  63  73 VRB3      29.88F
TAPPAHANNOCK*  MOSUNNY   74  63  68 CALM      29.85F
CHARLOTTSVILLE SUNNY     75  61  61 CALM      29.86F
ORANGE*        SUNNY     75  61  60 CALM      29.88F
LOUISA*        SUNNY     75  63  64 CALM      29.86F
FARMVILLE*     SUNNY     79  61  53 SW5       29.86S
CREWE*         SUNNY     75  61  62 N5        29.88R
FORT PICKETT*  SUNNY     73  63  68 CALM      29.88S
LUNENBURG*     SUNNY     75  64  68 CALM      29.88R
SOUTH HILL*    SUNNY     75  64  69 N3        29.93S
LAWRENCEVILLE* SUNNY     72  64  77 N6        29.87S
ROANOKE RAPIDS SUNNY     75  63  64 N7        29.86F
RALEIGH        PTSUNNY   74  59  59 NW7       29.91S
$$

VAZ088>098-211600-
SOUTHEAST VIRGINIA

CITY           SKY/WX    TMP DP  RH WIND       PRES   REMARKS
NORFOLK        CLOUDY    73  69  87 N12G20    29.80S
VIRGINIA BEACH CLOUDY    73  71  93 N13       29.79S
NORFOLK NAVAL  CLOUDY    74  69  85 N12       29.82S
WEST POINT*    CLOUDY    72  67  85 NW6       29.85F
NEWPORT NEWS   CLOUDY    77  68  73 N8        29.81F
LANGLEY AFB    CLOUDY    73  73 100 NE8       29.80F
FORT EUSTIS    CLOUDY    72  72 100 NW10      29.80F
WILLIAMSBURG*  PTSUNNY   75  68  78 N8        29.84S
HR EXEC AP*    CLOUDY    72  68  88 NW5       29.83F
FRANKLIN*      CLOUDY    72  66  83 NW6       29.84S
WAKEFIELD      CLOUDY    70  64  81 N5        29.85S
$$

VAZ020-022-025-037-045-211600-
WEST CENTRAL AND SOUTHWEST VIRGINIA

CITY           SKY/WX    TMP DP  RH WIND       PRES   REMARKS
STAUNTON*      SUNNY     75  58  55 SW6       29.90F
HOT SPRINGS VA MOSUNNY   62  48  61 W17G23    30.00F
LYNCHBURG      SUNNY     74  62  66 VRB6      29.91F
DANVILLE       SUNNY     74  62  66 VRB5      29.91F
SOUTH BOSTON*  NOT AVBL
MARTINSVILLE   SUNNY     77  65  66 SE3       29.95F
ROANOKE        MOSUNNY   71  59  65 W10       29.93F
BLACKSBURG     SUNNY     66  66 100 W6        29.99F
DUBLIN*        SUNNY     72  64  78 W7        29.99F
MARION*        PTSUNNY   67  61  80 SW14G20   30.03F
HILLSVILLE*    SUNNY     68  60  75 W13       30.00F
RICHLANDS*     PTSUNNY   70  62  76 SW6       30.03F
WISE*          MOSUNNY   72  59  64 SW10      30.04S
ABINGDON*      MOSUNNY   69  62  80 W9        30.04F
$$

MDZ021>025-VAZ099-100-211600-
SOUTHERN MARYLAND AND THE DELMARVA PENINSULA

CITY           SKY/WX    TMP DP  RH WIND       PRES   REMARKS
PATUXENT RIVER PTSUNNY   72  65  78 NW9       29.83F
BAY BRIDGE APT   N/A     70  64  83 N6        29.84F
LEONARDTOWN    PTSUNNY   72  63  73 N5        29.85F
DOVER          CLOUDY    72  71  96 NW8       29.81F
GEORGETOWN     CLOUDY    76  69  79 E14       29.82F
EASTON         NOT AVBL
CAMBRIDGE      CLOUDY    70  64  83 NW3       29.83S
SALISBURY      CLOUDY    75  69  81 NE7       29.81F
OCEAN CITY     CLOUDY   N/A N/A N/A N7        29.81F
WALLOPS ISLAND CLOUDY    73  70  90 N7        29.81F
ACCOMACK*      CLOUDY    70  68  94 N5        29.81S
$$

NCZ012>017-030>032-211600-
EASTERN NORTH CAROLINA

CITY           SKY/WX    TMP DP  RH WIND       PRES   REMARKS
ELIZABETH CITY CLOUDY    75  70  84 N16       29.79S
AHOSKIE*       MOSUNNY   68  64  86 NW3       29.86R
EDENTON*       CLOUDY    73  70  89 N13       29.81R
CURRITUCK*     CLOUDY    74  70  88 N9G16     29.79S
KILL DEVIL HLS CLOUDY    74  72  91 N9G20     29.75S
MANTEO         CLOUDY    75  71  87 N16G22    29.76S
CAPE HATTERAS  CLOUDY    73  72  96 VRB7G20   29.73F
TARBORO*       PTSUNNY   74  65  71 NW9       29.87S
GOLDSBORO      PTSUNNY   71  67  89 CALM      29.87R
WASHINGTON     PTSUNNY   71  68  89 NW6       29.84R
GREENVILLE     PTSUNNY   72  64  78 N6        29.88S
NEW BERN       CLOUDY    76  69  79 NW8       29.85R
WILMINGTON     PTSUNNY   76  68  76 NW18      29.88R
$$

VAZ048-211600-
ELSEWHERE

CITY           SKY/WX    TMP DP  RH WIND       PRES   REMARKS
HARRISBURG PA  PTSUNNY   69  61  75 E6        29.85F HAZE
BALTIMORE      PTSUNNY   73  62  68 VRB5      29.85F
ANNAPOLIS        N/A     71  63  75 CALM      29.84F
ANDREWS AFB    MOSUNNY   70  64  81 VRB2      29.85F
WILMINGTON DE  CLOUDY    72  65  78 CALM      29.84F
PHILADELPHIA   CLOUDY    70  65  84 VRB5      29.84F
WILDWOOD NJ*   CLOUDY    73  66  78 E7        29.82F
ATLANTIC CITY  CLOUDY    72  68  87 NE5       29.83F
HENDERSON NC   MOSUNNY   75  60  58 W7        29.91R
GREENSBORO     MOSUNNY   77  60  55 W9        29.94R
ROCKY MOUNT    PTSUNNY   70  64  81 W5        29.88S
FAYETTEVILLE   MOSUNNY   79  61  53 NW7       29.91S
CHARLOTTE      MOSUNNY   76  61  59 VRB3      29.98S
$$

VAZ100-211600-
MARINE

STATION/POSITION TIME  TEMP    WIND        PRES    WAVE   SWELL
                       AIR SEA DIR/SP/G            HT/PER HT/PER
                 (UTC) (F)     (DEG/KT/KT) (MB)    (FT/S) (FT/S)
44066 TX TWR #4  1500   72 71  120/  8/ 10 1010.3F   4/ 8   3/ 8
CAPE MAY NJ      1500   72 75   80/  4/  5 1009.2F
LEWES DE         1500   71 72   40/  6/  7 1009.3F
15NM E FENWICK I 1500   72 72              1009.0F   4/ 8
OCEAN-CITY-INLET 1500   72 72   10/  6/  8 1009.1S
WACHAPREAGUE VA  1500   71 73  330/  4/  7 1009.1F
THOMAS POINT MD  1500   67 73   50/  6/  7 1011.5F
GOOSES REEF MD   1500   70      40/  6/ 10 1011.1F
COVE POINT MD    1500   69     360/  7/ 10 1010.3S
SOLOMONS ISLAND  1500      76                N/A
BISHOPS HEAD MD  1500   70 72   10/  5/  8 1009.3F
PINEY POINT MD   1500          340/ 10/ 10   N/A
POTOMAC MD       1500   70     360/  6/  8 1009.6F
CAMBRIDGE MD     1500   67 74  320/  6/  9 1009.9F
LEWISETTA VA     1500   70 74  350/  6/ 10 1009.8F
RAPPAHANNOCK LGT 1500           10/ 14/ 15 1009.7F
STINGRAY PT      1500   72      10/ 12/ 14   N/A
YORK RVR RNG VA  1500   72     360/ 13/ 14 1008.6F
YORKTOWN VA      1500   72 76  320/  6/  7 1009.1F
JAMESTOWN VA     1500   69     340/ 10/ 14   N/A
DOMINION TERM VA 1500   72     360/  9/ 12 1009.5F
KIPTOPEKE VA     1500      78   10/  7/ 12   N/A
CHES BAY BRIDGE  1500   73 75  330/ 17/ 20 1008.7S
CAPE HENRY VA    1500   72     350/ 17/ 21 1007.7S
CHESAPEAKE LGHT  1400   72      20/ 21/ 23 1008.9F
WILLOUBY STN VA  1500   72     360/ 12/ 15 1008.0S
S CRANEY ISL VA  1500          330/ 11/ 14 1009.0F
CAPE HENRY BUOY  1500      75                N/A     5/ 8
1ST LANDING BUOY 1500   73     350/ 16/ 19 1008.8R
CAPE CHARLES BUO 1500      74                N/A     4/ 9   3/ 9
OFFSHORE WE BUOY 1500      74                N/A     6/ 8   5/ 8
64NM E OF VA BCH 1500   73 70   20/ 19/ 23 1005.4F   7/ 7   5/ 8
DUCK PIER NC     1500   72 74  360/ 21/ 23 1006.8S
44100 DUCK FRF   1500      74                N/A     7/ 8   2/11
44056 DUCK FRF   1500                        N/A     6/ 8   2/11
OREGON INLET NC  1500   74 74  350/ 12/ 20 1006.7F
HATTERAS NC      1500   73 74  340/ 20/ 23 1007.5S
DIAMOND SHLS NC  1500   75     330/ 27/ 31 1005.2F   9/ 8   7/ 8
CAPE LOOKOUT NC  1400   73     330/ 18/ 20 1008.5R
$$


USA.gov is the U.S. government's official web portal to all federal, state and local government web resources and services.